Weather History for KTAD - May, 2013

Change the Weather History Date:

Thursday, May 23, 2013

  Actual Average Record
Temperature  
Mean Temperature 61 °F 61 °F  
Max Temperature 73 °F 77 °F 93 °F (1989)
Min Temperature 48 °F 46 °F 32 °F (1975)
Degree Days  
Heating Degree Days 4 5  
Month to date heating degree days 226 173  
Since 1 July heating degree days 5434 5463  
Cooling Degree Days 0 1  
Month to date cooling degree days 20 12  
Year to date cooling degree days 24 14  
Growing Degree Days 10 (Base 50)    
Moisture  
Dew Point 43 °F    
Average Humidity 55    
Maximum Humidity 80    
Minimum Humidity 30    
Precipitation  
Precipitation T in 0.05 in 1.03 in (1956)
Month to date precipitation 0.51 1.13  
Year to date precipitation 1.94 4.04  
Sea Level Pressure  
Sea Level Pressure 29.96 in    
Wind  
Wind Speed 12 mph (NE)    
Max Wind Speed 26 mph    
Max Gust Speed 32 mph    
Visibility 10 miles    
Events      
T = Trace of Precipitation, MM = Missing Value Source: NWS Daily Summary

Daily Weather History Graph

Daily Weather History Graph

Search for Another Location

Airport or City:

Trip Planner

Search our weather history database for the weather conditions in past years. The results will help you decide how hot, cold, wet, or windy it might be!

Date:

Astronomy

May. 23, 2013 Rise Set
Actual Time 5:42 AM MDT 8:05 PM MDT
Civil Twilight 5:12 AM MDT 8:35 PM MDT
Nautical Twilight 4:36 AM MDT 9:12 PM MDT
Astronomical Twilight 3:55 AM MDT 9:53 PM MDT
Moon 6:42 PM MDT (5/23) 4:27 AM MDT (5/23)
Length of Visible Light 15h 22m
Length of Day
14h 23m
Waxing Gibbous, 97% of the Moon is Illuminated
May 23
Waxing Gibbous
May 24
Full
May 31
Last Quarter
Jun 8
New
Jun 16
First Quarter

Hourly Weather History & Observations

Time (MDT) Temp. Dew Point Humidity Pressure Visibility Wind Dir Wind Speed Gust Speed Precip Events Conditions
12:54 AM 57.9 °F 27.0 °F 31% 29.77 in 10.0 mi NW 11.5 mph - N/A   Clear
1:54 AM 57.9 °F 32.0 °F 37% 29.78 in 10.0 mi WNW 20.7 mph 25.3 mph N/A   Partly Cloudy
2:54 AM 54.0 °F 39.0 °F 57% 29.82 in 10.0 mi WNW 19.6 mph 27.6 mph N/A   Clear
3:54 AM 51.1 °F 39.0 °F 63% 29.88 in 10.0 mi NW 15.0 mph - N/A   Clear
4:54 AM 48.9 °F 39.9 °F 71% 29.93 in 10.0 mi NW 11.5 mph - N/A   Clear
5:46 AM 48.2 °F 39.2 °F 71% 30.15 in 10.0 mi NNW 8.1 mph - N/A   Mostly Cloudy
5:54 AM 48.0 °F 39.9 °F 74% 29.96 in 10.0 mi NNW 8.1 mph - N/A   Mostly Cloudy
6:37 AM 50.0 °F 42.8 °F 76% 30.16 in 10.0 mi North 9.2 mph - N/A   Overcast
6:54 AM 50.0 °F 42.1 °F 74% 29.96 in 10.0 mi North 8.1 mph - N/A   Overcast
7:12 AM 50.0 °F 42.8 °F 76% 30.17 in 10.0 mi North 9.2 mph - N/A   Overcast
7:54 AM 51.1 °F 43.0 °F 74% 29.99 in 10.0 mi North 5.8 mph - N/A   Overcast
8:06 AM 51.8 °F 42.8 °F 71% 30.18 in 10.0 mi North 5.8 mph - N/A   Overcast
8:54 AM 52.0 °F 43.0 °F 71% 30.01 in 10.0 mi North 8.1 mph - N/A   Overcast
9:34 AM 53.6 °F 42.8 °F 67% 30.19 in 10.0 mi NNE 5.8 mph - N/A   Mostly Cloudy
9:54 AM 54.0 °F 43.0 °F 66% 30.01 in 10.0 mi Variable 4.6 mph - N/A   Mostly Cloudy
10:54 AM 54.0 °F 43.0 °F 66% 30.00 in 10.0 mi Calm Calm - N/A   Overcast
11:29 AM 57.2 °F 42.8 °F 59% 30.16 in 10.0 mi ENE 6.9 mph - N/A   Scattered Clouds
11:54 AM 61.0 °F 43.0 °F 52% 29.98 in 10.0 mi Variable 3.5 mph - N/A   Clear
12:54 PM 63.0 °F 43.0 °F 48% 29.95 in 10.0 mi East 9.2 mph - N/A   Clear
1:54 PM 66.0 °F 44.1 °F 45% 29.92 in 10.0 mi East 10.4 mph 18.4 mph N/A   Clear
2:54 PM 69.1 °F 43.0 °F 39% 29.90 in 10.0 mi East 13.8 mph 21.9 mph N/A   Clear
3:54 PM 71.1 °F 45.0 °F 39% 29.88 in 10.0 mi ENE 18.4 mph 24.2 mph 0.00 in   Partly Cloudy
4:54 PM 72.0 °F 43.0 °F 35% 29.87 in 10.0 mi East 18.4 mph 26.5 mph N/A   Clear
5:54 PM 71.1 °F 43.0 °F 36% 29.85 in 10.0 mi East 19.6 mph 25.3 mph N/A   Clear
6:54 PM 71.1 °F 43.0 °F 36% 29.84 in 10.0 mi ESE 16.1 mph 24.2 mph N/A   Clear
7:54 PM 69.1 °F 42.1 °F 38% 29.86 in 10.0 mi SSE 15.0 mph - N/A   Clear
8:54 PM 64.0 °F 46.9 °F 54% 29.91 in 10.0 mi SSE 24.2 mph 29.9 mph N/A   Clear
9:54 PM 61.0 °F 50.0 °F 67% 29.94 in 10.0 mi ESE 10.4 mph 23.0 mph N/A   Clear
10:54 PM 60.1 °F 53.1 °F 78% 29.94 in 9.0 mi ESE 10.4 mph 21.9 mph N/A   Mostly Cloudy
11:54 PM 59.0 °F 53.1 °F 81% 29.94 in 10.0 mi ESE 13.8 mph - N/A   Mostly Cloudy